Regional Weather Roundup
Issued by NWS Cleveland, OH

Home | Current Version | Previous Version | Text Only | Print | Product List | Glossary On
Versions: 1 2 3 4 5 6 7 8 9 10 11 12 13 14 15 16 17 18 19 20 21 22 23 24 25 26 27 28 29 30 31 32 33 34 35 36 37 38 39 40 41 42 43 44 45 46 47 48 49 50
000
ASUS41 KCLE 281100
RWRCLE
OHIO REGIONAL WEATHER ROUNDUP
NATIONAL WEATHER SERVICE WILMINGTON, OH
700 AM EDT WED SEP 28 2016

NOTE: "FAIR" INDICATES FEW OR NO CLOUDS BELOW 12,000 FEET WITH NO
SIGNIFICANT WEATHER AND/OR OBSTRUCTIONS TO VISIBILITY.

OHZ001>008-015>018-024>027-034-035-043-044-281200-
   NORTHWEST OHIO

CITY           SKY/WX    TMP DP  RH WIND       PRES   REMARKS
DEFIANCE       MOCLDY    53  48  83 E6        29.77F
FINDLAY        LGT RAIN  57  50  77 SE12      29.83R
TOLEDO EXPRESS FAIR      49  48  97 E6        29.80S
TOLEDO EXEC    CLOUDY    54  50  86 SE7       29.81F
LIMA           LGT RAIN  55  53  93 VRB7      29.84R
$$

OHZ009>014-019>023-028>033-038-089-281200-
   NORTHEAST OHIO

CITY           SKY/WX    TMP DP  RH WIND       PRES   REMARKS
CLE-HOPKINS    MOCLDY    58  44  60 S10       29.87S
CLE-LAKEFRONT  FAIR      60  43  53 SE13      29.84S
CUY CO. ARPT   PTCLDY    59  46  63 S14       29.87
LORAIN-ELYRIA  FAIR      54  44  69 S7        29.85S
ASHTABULA      FAIR      53  45  74 SE8       29.92S
AKRON-CANTON   FAIR      55  42  61 SE8       29.89S
WOOSTER        NOT AVBL
MANSFIELD      FAIR      55  45  68 S9        29.85R
YOUNGSTOWN     MOCLDY    51  42  71 SE10      29.92S
$$

OHZ042-051>053-060>062-070>072-077>081-281200-
  SOUTHWEST OHIO

CITY           SKY/WX    TMP DP  RH WIND       PRES   REMARKS
CINC-COVINGTON MOCLDY    57  48  72 S12       29.82S
CINC-LUNKEN    FAIR      54  49  83 SW5       29.84S
HAMILTON       MOCLDY    55  51  86 CALM      29.82S
DAYTON         NOT AVBL
WRIGHT-PAT AFB NOT AVBL
DAYTON GENERAL CLOUDY    59  46  62 S10       29.81S
WILMINGTON     MOCLDY    56  46  69 S9        29.83S
$$

OHZ036-037-039>041-045>050-054>059-063>069-073>076-082>088-281200-
  CENTRAL AND SOUTHEAST OHIO

CITY           SKY/WX    TMP DP  RH WIND       PRES   REMARKS
COLUMBUS       MOCLDY    58  46  64 SE6       29.83F
OSU AIRPORT    FAIR      56  46  69 S7        29.83F
BOLTON FIELD   NOT AVBL
RICKENBACK AFB NOT AVBL
NEWARK         FAIR      47  45  93 CALM      29.85F
MARION         MOCLDY    56  46  69 CALM      29.84R
LANCASTER      FAIR      53  46  77 SE7       29.86F
ZANESVILLE     FAIR      50  43  77 SE6       29.89S
NEW PHILLY     FAIR      48  46  93 SE7       29.91S
$$



USA.gov is the U.S. government's official web portal to all federal, state and local government web resources and services.